Weather in Verkola

Russia / Arkhangel'skaya Oblast'     63°47′53″N   45°08′03″E
temp.,
°C
wind,
m/s
gust,
m/s
humid.,
%
clouds,
%
prec.,
mm/h
press.,
hPa
HPBL,
m
16 may, sun
sun1600:00+12e3963100 0.0 1010175
03:00+13e31162100 0.0 1009359
06:00+12ene3994100 6.1 1006382
09:00+14e369398 8.3 1005412
12:00+17ssw597438 3.0 10041163
15:00+13ssw41087100 5.6 1004834
18:00+13sw3894100 1.1 1003665
21:00+13wsw2598100 1.2 1004238
17 may, mon
mon1700:00+11nw369694 0.0 1006396
03:00+10nw3695100 0.1 1008527
06:00+9nnw3694100 0.1 1011572
09:00+9nnw3692100 0.3 1014508
12:00+14n347084 0.1 1016959
15:00+17n2355100 0.1 10171465
18:00+15se236478 0.0 1018136
21:00+13sse247949 0.0 101995
18 may, tue
tue1800:00+9s24922 0.0 102075
03:00+8sse2395100 0.0 102162
06:00+12sse3675100 0.0 1022236
09:00+17sse3555100 0.0 1022753
12:00+20sse464391 0.0 10211250
15:00+21sse4637100 0.0 10191449
18:00+20sse374595 0.0 1018597
21:00+15se3965100 0.0 1018168
19 may, wed
wed1900:00+15sse41369100 0.0 1017342
03:00+13se310815 0.0 1017243
06:00+17sse4107048 0.0 1015358
09:00+24s585177 0.0 1014844
12:00+28ssw6931100 0.0 10132234
15:00+29ssw592825 0.0 10122506
18:00+28ssw492726 0.0 10111076
21:00+21s313475 0.0 1011303
20 may, thu
thu2000:00+21ssw415521 0.0 1012439
03:00+19ssw414595 0.0 1013405
06:00+21s311600 0.0 1012450
09:00+26s56420 0.0 10111026
12:00+29ssw572926 0.0 10113054
15:00+30ssw472430 0.0 10103154
18:00+28s47295 0.0 10091578
21:00+23sse413430 0.0 1008527